Погода в Пенрите

Великобритания     54°39′49″N   2°45′07″W
темп.,
°C
ветер,
м/с
пор.,
м/с
влажн.,
%
обл.,
%
осадки,
мм/ч
давл.,
гПа
погр.,
м
20 апреля, вт
вт2001:00+7юв1175100 0.0 101911
04:00+5ююв228398 0.0 101915
07:00+6сз1184100 0.0 101910
10:00+10сз2272100 0.0 1019380
13:00+12сз3364100 0.0 1019997
16:00+12сз4463100 0.1 1019951
19:00+10ссз357758 0.1 1019314
22:00+7всв479064 0.0 1021323
21 апреля, ср
ср2101:00+6всв378494 0.0 1022429
04:00+5всв3678100 0.1 1023488
07:00+4всв48795 0.1 1025440
10:00+6всв56565 0.0 1025858
13:00+9всв334936 0.0 10251264
16:00+10всв324759 0.0 10251451
19:00+8всв34655 0.0 1025148
22:00+3юв337241 0.0 102730
22 апреля, чт
чт2201:00+1ююв337733 0.0 102746
04:00+1ююв227966 0.0 102817
07:00+2ююв118166 0.0 102811
10:00+8сз236863 0.0 1028560
13:00+11сз335930 0.0 1028996
16:00+12сз32575 0.0 1028996
19:00+10сз12723 0.0 102852
22:00+5в11852 0.0 103010
23 апреля, пт
пт2301:00+4юв228925 0.0 103015
04:00+3юв22895 0.0 103017
07:00+4ююв22865 0.0 103028
10:00+11ююз116854 0.0 1030442
13:00+14з11545 0.0 10291260
16:00+15сз22525 0.0 10291480
19:00+11сз34797 0.0 1029198
22:00+7с118598 0.0 103017
24 апреля, сб
сб2401:00+7ююв1184100 0.0 103018
04:00+7ююв1187100 0.0 103012
07:00+7в1184100 0.0 103112
10:00+12св12685 0.0 1031637
13:00+15в335647 0.1 10311621
16:00+14в3355100 0.1 10311506
19:00+12в467053 0.1 1031323
22:00+6в22925 0.0 103425